Time,TemperatureF,DewpointF,PressureIn,WindDirection,WindDirectionDegrees,WindSpeedMPH,WindSpeedGustMPH,Humidity,HourlyPrecipIn,Conditions,Clouds,dailyrainin,SoftwareType,DateUTC
2013-01-27 00:01:00,31.1,29.6,29.71,WSW,241,5.0,7.0,94,0.00,,---,0.00,VWS V13.00,2013-01-27 07:01:00,
2013-01-27 00:06:00,31.1,29.6,29.71,WSW,242,3.0,7.0,94,0.00,,---,0.00,VWS V13.00,2013-01-27 07:06:00,
2013-01-27 00:13:00,31.1,29.6,29.73,WSW,242,3.0,7.0,94,0.00,,---,0.00,VWS V13.00,2013-01-27 07:13:00,
2013-01-27 00:18:00,31.1,29.6,29.73,WSW,252,7.0,8.0,94,0.00,,---,0.00,VWS V13.00,2013-01-27 07:18:00,
2013-01-27 00:23:00,31.2,29.7,29.73,West,271,6.0,9.0,94,0.00,,---,0.00,VWS V13.00,2013-01-27 07:23:00,
2013-01-27 00:28:00,31.2,29.7,29.73,West,272,7.0,10.0,94,0.00,,---,0.00,VWS V13.00,2013-01-27 07:28:00,
2013-01-27 00:33:00,31.2,29.7,29.73,West,272,7.0,10.0,94,0.00,,---,0.00,VWS V13.00,2013-01-27 07:33:00,
2013-01-27 00:38:00,31.3,29.8,29.73,West,272,5.0,10.0,94,0.00,,---,0.00,VWS V13.00,2013-01-27 07:38:00,
2013-01-27 00:43:00,31.3,29.8,29.73,West,274,7.0,10.0,94,0.00,,---,0.00,VWS V13.00,2013-01-27 07:43:00,
2013-01-27 00:48:00,31.2,29.7,29.73,West,273,7.0,11.0,94,0.00,,---,0.00,VWS V13.00,2013-01-27 07:48:00,
2013-01-27 00:53:00,31.2,29.7,29.73,West,267,10.0,11.0,94,0.00,,---,0.00,VWS V13.00,2013-01-27 07:53:00,
2013-01-27 00:58:00,31.2,29.7,29.72,West,261,5.0,11.0,94,0.00,,---,0.00,VWS V13.00,2013-01-27 07:58:00,
2013-01-27 01:03:00,31.3,29.8,29.72,West,261,5.0,11.0,94,0.00,,---,0.00,VWS V13.00,2013-01-27 08:03:00,
2013-01-27 01:08:00,31.2,29.7,29.72,West,261,4.0,11.0,94,0.00,,---,0.00,VWS V13.00,2013-01-27 08:08:00,
2013-01-27 01:13:00,31.2,29.7,29.71,West,261,5.0,6.0,94,0.00,,---,0.00,VWS V13.00,2013-01-27 08:13:00,
2013-01-27 01:18:00,31.2,29.7,29.71,WSW,254,3.0,10.0,94,0.00,,---,0.00,VWS V13.00,2013-01-27 08:18:00,
2013-01-27 01:23:00,31.2,29.7,29.71,WSW,248,5.0,10.0,94,0.00,,---,0.00,VWS V13.00,2013-01-27 08:23:00,
2013-01-27 01:28:00,31.2,29.7,29.72,WSW,248,6.0,10.0,94,0.00,,---,0.00,VWS V13.00,2013-01-27 08:28:00,
2013-01-27 01:33:00,31.2,29.9,29.72,WSW,251,6.0,10.0,95,0.00,,---,0.00,VWS V13.00,2013-01-27 08:33:00,
2013-01-27 01:38:00,31.2,29.9,29.72,WSW,253,7.0,10.0,95,0.00,,---,0.00,VWS V13.00,2013-01-27 08:38:00,
2013-01-27 01:43:00,31.2,29.9,29.72,WSW,253,6.0,8.0,95,0.00,,---,0.00,VWS V13.00,2013-01-27 08:43:00,
2013-01-27 01:48:00,31.2,29.7,29.72,WSW,254,5.0,9.0,94,0.00,,---,0.00,VWS V13.00,2013-01-27 08:48:00,
2013-01-27 01:53:00,31.2,29.7,29.72,WSW,254,5.0,9.0,94,0.00,,---,0.00,VWS V13.00,2013-01-27 08:53:00,
2013-01-27 01:58:00,31.2,29.7,29.73,WSW,254,4.0,9.0,94,0.00,,---,0.00,VWS V13.00,2013-01-27 08:58:00,
2013-01-27 02:03:00,31.2,29.9,29.73,West,273,6.0,11.0,95,0.00,,---,0.00,VWS V13.00,2013-01-27 09:03:00,
2013-01-27 02:08:00,31.2,29.9,29.73,West,279,6.0,12.0,95,0.00,,---,0.00,VWS V13.00,2013-01-27 09:08:00,
2013-01-27 02:13:00,31.2,29.9,29.73,West,280,5.0,7.0,95,0.00,,---,0.00,VWS V13.00,2013-01-27 09:13:00,
2013-01-27 02:18:00,31.2,29.9,29.73,West,280,4.0,7.0,95,0.00,,---,0.00,VWS V13.00,2013-01-27 09:18:00,
2013-01-27 02:23:00,31.3,30.0,29.73,West,280,6.0,7.0,95,0.00,,---,0.00,VWS V13.00,2013-01-27 09:23:00,
2013-01-27 02:28:00,31.2,29.9,29.74,West,280,4.0,7.0,95,0.00,,---,0.00,VWS V13.00,2013-01-27 09:28:00,
2013-01-27 02:33:00,31.2,29.9,29.74,West,278,7.0,10.0,95,0.00,,---,0.00,VWS V13.00,2013-01-27 09:33:00,
2013-01-27 02:38:00,31.2,29.9,29.74,West,275,6.0,10.0,95,0.00,,---,0.00,VWS V13.00,2013-01-27 09:38:00,
2013-01-27 02:43:00,31.2,29.9,29.74,West,273,7.0,8.0,95,0.00,,---,0.00,VWS V13.00,2013-01-27 09:43:00,
2013-01-27 02:48:00,31.1,29.8,29.74,West,271,4.0,10.0,95,0.00,,---,0.00,VWS V13.00,2013-01-27 09:48:00,
2013-01-27 02:53:00,30.9,29.6,29.74,West,271,5.0,10.0,95,0.00,,---,0.00,VWS V13.00,2013-01-27 09:53:00,
2013-01-27 02:58:00,30.8,29.5,29.72,West,269,5.0,10.0,95,0.00,,---,0.00,VWS V13.00,2013-01-27 09:58:00,
2013-01-27 03:03:00,30.7,29.2,29.72,West,269,5.0,10.0,94,0.00,,---,0.00,VWS V13.00,2013-01-27 10:03:00,
2013-01-27 03:08:00,30.5,29.0,29.72,West,267,6.0,10.0,94,0.00,,---,0.00,VWS V13.00,2013-01-27 10:08:00,
2013-01-27 03:13:00,30.4,28.9,29.72,WSW,257,7.0,10.0,94,0.00,,---,0.00,VWS V13.00,2013-01-27 10:13:00,
2013-01-27 03:18:00,30.3,29.0,29.72,WSW,257,6.0,10.0,95,0.00,,---,0.00,VWS V13.00,2013-01-27 10:18:00,
2013-01-27 03:23:00,30.3,29.0,29.72,WSW,256,4.0,10.0,95,0.00,,---,0.00,VWS V13.00,2013-01-27 10:23:00,
2013-01-27 03:28:00,30.2,28.9,29.73,WSW,257,5.0,10.0,95,0.00,,---,0.00,VWS V13.00,2013-01-27 10:28:00,
2013-01-27 03:33:00,30.2,28.9,29.73,WSW,256,6.0,10.0,95,0.00,,---,0.00,VWS V13.00,2013-01-27 10:33:00,
2013-01-27 03:38:00,30.3,29.0,29.73,WSW,250,6.0,10.0,95,0.00,,---,0.00,VWS V13.00,2013-01-27 10:38:00,
2013-01-27 03:43:00,30.3,29.0,29.73,WSW,240,7.0,10.0,95,0.00,,---,0.00,VWS V13.00,2013-01-27 10:43:00,
2013-01-27 03:48:00,30.3,29.0,29.73,WSW,237,6.0,10.0,95,0.00,,---,0.00,VWS V13.00,2013-01-27 10:48:00,
2013-01-27 03:53:00,30.3,29.0,29.73,WSW,238,3.0,10.0,95,0.00,,---,0.00,VWS V13.00,2013-01-27 10:53:00,
2013-01-27 03:58:00,30.2,28.9,29.74,WSW,237,3.0,10.0,95,0.00,,---,0.00,VWS V13.00,2013-01-27 10:58:00,
2013-01-27 04:03:00,30.2,28.9,29.74,WSW,238,4.0,10.0,95,0.00,,---,0.00,VWS V13.00,2013-01-27 11:03:00,
2013-01-27 04:08:00,30.2,28.9,29.74,WSW,238,5.0,10.0,95,0.00,,---,0.00,VWS V13.00,2013-01-27 11:08:00,
2013-01-27 04:13:00,30.3,29.0,29.74,WSW,244,7.0,10.0,95,0.00,,---,0.00,VWS V13.00,2013-01-27 11:13:00,
2013-01-27 04:18:00,30.4,29.1,29.74,WSW,245,5.0,10.0,95,0.00,,---,0.00,VWS V13.00,2013-01-27 11:18:00,
2013-01-27 04:22:00,30.5,29.2,29.74,WSW,245,4.0,10.0,95,0.00,,---,0.00,VWS V13.00,2013-01-27 11:22:00,
2013-01-27 04:27:00,30.6,29.3,29.73,WSW,246,5.0,10.0,95,0.00,,---,0.00,VWS V13.00,2013-01-27 11:27:00,
2013-01-27 04:32:00,30.6,29.3,29.73,WSW,258,8.0,10.0,95,0.00,,---,0.00,VWS V13.00,2013-01-27 11:32:00,
2013-01-27 04:37:00,30.7,29.4,29.73,West,274,7.0,11.0,95,0.00,,---,0.00,VWS V13.00,2013-01-27 11:37:00,
2013-01-27 04:42:00,30.7,29.4,29.73,West,278,7.0,10.0,95,0.00,,---,0.00,VWS V13.00,2013-01-27 11:42:00,
2013-01-27 04:47:00,30.7,29.4,29.73,West,278,7.0,12.0,95,0.00,,---,0.00,VWS V13.00,2013-01-27 11:47:00,
2013-01-27 04:52:00,30.7,29.4,29.73,West,281,9.0,12.0,95,0.00,,---,0.00,VWS V13.00,2013-01-27 11:52:00,
2013-01-27 04:57:00,30.6,29.1,29.75,West,281,7.0,12.0,94,0.00,,---,0.00,VWS V13.00,2013-01-27 11:57:00,
2013-01-27 05:02:00,30.5,29.0,29.75,West,281,4.0,12.0,94,0.00,,---,0.00,VWS V13.00,2013-01-27 12:02:00,
2013-01-27 05:07:00,30.3,28.8,29.75,West,281,3.0,12.0,94,0.00,,---,0.00,VWS V13.00,2013-01-27 12:07:00,
2013-01-27 05:12:00,30.2,28.7,29.76,West,281,3.0,4.0,94,0.00,,---,0.00,VWS V13.00,2013-01-27 12:12:00,
2013-01-27 05:17:00,30.1,28.6,29.76,West,280,0.0,4.0,94,0.00,,---,0.00,VWS V13.00,2013-01-27 12:17:00,
2013-01-27 05:22:00,30.0,28.5,29.76,West,281,0.0,4.0,94,0.00,,---,0.00,VWS V13.00,2013-01-27 12:22:00,
2013-01-27 05:27:00,29.9,28.4,29.76,West,281,0.0,4.0,94,0.00,,---,0.00,VWS V13.00,2013-01-27 12:27:00,
2013-01-27 05:32:00,29.8,28.3,29.76,West,280,0.0,4.0,94,0.00,,---,0.00,VWS V13.00,2013-01-27 12:32:00,
2013-01-27 05:37:00,29.8,28.3,29.76,West,280,0.0,4.0,94,0.00,,---,0.00,VWS V13.00,2013-01-27 12:37:00,
2013-01-27 05:42:00,29.8,28.3,29.76,West,281,0.0,0.0,94,0.00,,---,0.00,VWS V13.00,2013-01-27 12:42:00,
2013-01-27 05:47:00,29.7,28.2,29.76,West,281,0.0,0.0,94,0.00,,---,0.00,VWS V13.00,2013-01-27 12:47:00,
2013-01-27 05:52:00,29.6,28.1,29.76,West,281,0.0,0.0,94,0.00,,---,0.00,VWS V13.00,2013-01-27 12:52:00,
2013-01-27 05:57:00,29.6,28.1,29.78,West,280,0.0,0.0,94,0.00,,---,0.00,VWS V13.00,2013-01-27 12:57:00,
2013-01-27 06:02:00,29.6,28.4,29.78,West,281,0.0,0.0,95,0.00,,---,0.00,VWS V13.00,2013-01-27 13:02:00,
2013-01-27 06:07:00,29.6,28.4,29.78,West,281,0.0,0.0,95,0.00,,---,0.00,VWS V13.00,2013-01-27 13:07:00,
2013-01-27 06:12:00,29.5,28.2,29.78,West,281,3.0,6.0,95,0.00,,---,0.00,VWS V13.00,2013-01-27 13:12:00,
2013-01-27 06:17:00,29.4,27.9,29.78,West,281,2.0,6.0,94,0.00,,---,0.00,VWS V13.00,2013-01-27 13:17:00,
2013-01-27 06:22:00,29.2,27.7,29.78,West,281,4.0,6.0,94,0.00,,---,0.00,VWS V13.00,2013-01-27 13:22:00,
2013-01-27 06:27:00,29.1,27.6,29.79,West,280,5.0,6.0,94,0.00,,---,0.00,VWS V13.00,2013-01-27 13:27:00,
2013-01-27 06:32:00,29.1,27.6,29.79,West,281,6.0,6.0,94,0.00,,---,0.00,VWS V13.00,2013-01-27 13:32:00,
2013-01-27 06:37:00,29.2,28.0,29.79,West,280,4.0,7.0,95,0.00,,---,0.00,VWS V13.00,2013-01-27 13:37:00,
2013-01-27 06:42:00,29.2,28.0,29.79,West,277,3.0,9.0,95,0.00,,---,0.00,VWS V13.00,2013-01-27 13:42:00,
2013-01-27 06:47:00,29.1,27.9,29.79,West,277,6.0,9.0,95,0.00,,---,0.00,VWS V13.00,2013-01-27 13:47:00,
2013-01-27 06:52:00,29.2,28.0,29.79,West,275,7.0,9.0,95,0.00,,---,0.00,VWS V13.00,2013-01-27 13:52:00,
2013-01-27 06:57:00,29.1,27.6,29.81,West,274,6.0,9.0,94,0.00,,---,0.00,VWS V13.00,2013-01-27 13:57:00,
2013-01-27 07:02:00,29.0,27.5,29.81,WSW,258,6.0,9.0,94,0.00,,---,0.00,VWS V13.00,2013-01-27 14:02:00,
2013-01-27 07:07:00,28.9,27.4,29.81,WSW,257,5.0,9.0,94,0.00,,---,0.00,VWS V13.00,2013-01-27 14:07:00,
2013-01-27 07:12:00,28.7,27.2,29.81,WSW,254,5.0,7.0,94,0.00,,---,0.00,VWS V13.00,2013-01-27 14:12:00,
2013-01-27 07:17:00,28.6,27.1,29.81,WSW,248,5.0,7.0,94,0.00,,---,0.00,VWS V13.00,2013-01-27 14:17:00,
2013-01-27 07:22:00,28.7,27.2,29.81,WSW,248,6.0,7.0,94,0.00,,---,0.00,VWS V13.00,2013-01-27 14:22:00,
2013-01-27 07:27:00,28.6,27.1,29.81,WSW,248,5.0,7.0,94,0.00,,---,0.00,VWS V13.00,2013-01-27 14:27:00,
2013-01-27 07:32:00,28.5,27.0,29.81,WSW,248,5.0,7.0,94,0.00,,---,0.00,VWS V13.00,2013-01-27 14:32:00,
2013-01-27 07:37:00,28.4,26.9,29.81,WSW,246,8.0,8.0,94,0.00,,---,0.00,VWS V13.00,2013-01-27 14:37:00,
2013-01-27 07:42:00,28.4,26.9,29.82,WSW,245,4.0,6.0,94,0.00,,---,0.00,VWS V13.00,2013-01-27 14:42:00,
2013-01-27 07:47:00,28.4,26.9,29.82,WSW,240,4.0,6.0,94,0.00,,---,0.00,VWS V13.00,2013-01-27 14:47:00,
2013-01-27 07:52:00,28.4,26.9,29.82,WSW,239,6.0,7.0,94,0.00,,---,0.00,VWS V13.00,2013-01-27 14:52:00,
2013-01-27 07:57:00,28.5,27.0,29.83,WSW,240,7.0,9.0,94,0.00,,---,0.00,VWS V13.00,2013-01-27 14:57:00,
2013-01-27 08:02:00,28.7,27.2,29.83,WSW,242,8.0,9.0,94,0.00,,---,0.00,VWS V13.00,2013-01-27 15:02:00,
2013-01-27 08:07:00,29.0,27.5,29.83,WSW,246,7.0,10.0,94,0.00,,---,0.00,VWS V13.00,2013-01-27 15:07:00,
2013-01-27 08:12:00,29.2,27.7,29.82,WSW,246,7.0,9.0,94,0.00,,---,0.00,VWS V13.00,2013-01-27 15:12:00,
2013-01-27 08:17:00,29.4,27.9,29.82,WSW,246,6.0,9.0,94,0.00,,---,0.00,VWS V13.00,2013-01-27 15:17:00,
2013-01-27 08:22:00,29.5,27.7,29.82,WSW,247,6.0,10.0,93,0.00,,---,0.00,VWS V13.00,2013-01-27 15:22:00,
2013-01-27 08:27:00,29.6,27.8,29.82,WSW,247,6.0,10.0,93,0.00,,---,0.00,VWS V13.00,2013-01-27 15:27:00,
2013-01-27 08:32:00,29.7,27.7,29.82,WSW,248,9.0,10.0,92,0.00,,---,0.00,VWS V13.00,2013-01-27 15:32:00,
2013-01-27 08:37:00,29.7,27.7,29.82,WSW,246,10.0,11.0,92,0.00,,---,0.00,VWS V13.00,2013-01-27 15:37:00,
2013-01-27 08:42:00,29.8,27.5,29.82,WSW,244,10.0,11.0,91,0.00,,---,0.00,VWS V13.00,2013-01-27 15:42:00,
2013-01-27 08:47:00,29.9,27.6,29.82,WSW,242,8.0,11.0,91,0.00,,---,0.00,VWS V13.00,2013-01-27 15:47:00,
2013-01-27 08:52:00,30.0,27.4,29.82,WSW,240,8.0,12.0,90,0.00,,---,0.00,VWS V13.00,2013-01-27 15:52:00,
2013-01-27 08:57:00,30.1,27.5,29.83,WSW,240,9.0,12.0,90,0.00,,---,0.00,VWS V13.00,2013-01-27 15:57:00,
2013-01-27 09:02:00,30.2,27.6,29.83,WSW,238,7.0,12.0,90,0.00,,---,0.00,VWS V13.00,2013-01-27 16:02:00,
2013-01-27 09:07:00,30.3,27.5,29.83,WSW,238,6.0,12.0,89,0.00,,---,0.00,VWS V13.00,2013-01-27 16:07:00,
2013-01-27 09:12:00,30.4,27.5,29.83,WSW,238,6.0,9.0,89,0.00,,---,0.00,VWS V13.00,2013-01-27 16:12:00,
2013-01-27 09:17:00,30.5,27.4,29.83,WSW,238,9.0,9.0,88,0.00,,---,0.00,VWS V13.00,2013-01-27 16:17:00,
2013-01-27 09:22:00,30.6,27.5,29.83,WSW,238,10.0,10.0,88,0.00,,---,0.00,VWS V13.00,2013-01-27 16:22:00,
2013-01-27 09:27:00,30.7,27.6,29.83,WSW,238,7.0,10.0,88,0.00,,---,0.00,VWS V13.00,2013-01-27 16:27:00,
2013-01-27 09:32:00,30.8,27.7,29.83,WSW,239,6.0,10.0,88,0.00,,---,0.00,VWS V13.00,2013-01-27 16:32:00,
2013-01-27 09:37:00,30.9,27.8,29.83,WSW,240,9.0,10.0,88,0.00,,---,0.00,VWS V13.00,2013-01-27 16:37:00,
2013-01-27 09:42:00,31.0,27.6,29.83,WSW,240,6.0,10.0,87,0.00,,---,0.00,VWS V13.00,2013-01-27 16:42:00,
2013-01-27 09:47:00,31.0,27.6,29.83,WSW,241,8.0,10.0,87,0.00,,---,0.00,VWS V13.00,2013-01-27 16:47:00,
2013-01-27 09:52:00,30.9,28.9,29.83,WSW,241,8.0,10.0,92,0.00,,---,0.00,VWS V13.00,2013-01-27 16:52:00,
2013-01-27 09:57:00,30.9,28.9,29.83,WSW,241,6.0,10.0,92,0.00,,---,0.00,VWS V13.00,2013-01-27 16:57:00,
2013-01-27 10:02:00,31.0,27.0,29.83,WSW,242,3.0,10.0,85,0.00,,---,0.00,VWS V13.00,2013-01-27 17:02:00,
2013-01-27 10:07:00,31.0,27.3,29.83,WSW,244,8.0,10.0,86,0.00,,---,0.00,VWS V13.00,2013-01-27 17:07:00,
2013-01-27 10:12:00,31.1,27.4,29.84,WSW,246,7.0,9.0,86,0.00,,---,0.00,VWS V13.00,2013-01-27 17:12:00,
2013-01-27 10:17:00,31.4,28.0,29.84,WSW,247,6.0,10.0,87,0.00,,---,0.00,VWS V13.00,2013-01-27 17:17:00,
2013-01-27 10:22:00,31.9,27.9,29.84,WSW,246,5.0,10.0,85,0.00,,---,0.00,VWS V13.00,2013-01-27 17:22:00,
2013-01-27 10:27:00,32.6,27.7,29.84,WSW,247,4.0,10.0,82,0.00,,---,0.00,VWS V13.00,2013-01-27 17:27:00,
2013-01-27 10:32:00,33.0,27.8,29.84,WSW,247,3.0,10.0,81,0.00,,---,0.00,VWS V13.00,2013-01-27 17:32:00,
2013-01-27 10:37:00,33.2,27.4,29.84,WSW,246,0.0,10.0,79,0.00,,---,0.00,VWS V13.00,2013-01-27 17:37:00,
2013-01-27 10:42:00,33.3,27.5,29.83,WSW,247,2.0,5.0,79,0.00,,---,0.00,VWS V13.00,2013-01-27 17:42:00,
2013-01-27 10:47:00,33.3,27.8,29.83,WSW,247,4.0,6.0,80,0.00,,---,0.00,VWS V13.00,2013-01-27 17:47:00,
2013-01-27 10:52:00,33.3,27.8,29.83,WSW,247,4.0,6.0,80,0.00,,---,0.00,VWS V13.00,2013-01-27 17:52:00,
2013-01-27 10:57:00,33.2,27.7,29.84,WSW,249,3.0,7.0,80,0.00,,---,0.00,VWS V13.00,2013-01-27 17:57:00,
2013-01-27 11:02:00,33.2,27.7,29.84,WSW,252,3.0,7.0,80,0.00,,---,0.00,VWS V13.00,2013-01-27 18:02:00,
2013-01-27 11:07:00,33.2,28.0,29.84,WNW,291,9.0,10.0,81,0.00,,---,0.00,VWS V13.00,2013-01-27 18:07:00,
2013-01-27 11:12:00,33.0,27.5,29.84,WNW,295,8.0,10.0,80,0.01,,---,0.01,VWS V13.00,2013-01-27 18:12:00,
2013-01-27 11:17:00,32.8,27.3,29.84,WNW,295,6.0,10.0,80,0.01,,---,0.01,VWS V13.00,2013-01-27 18:17:00,
2013-01-27 11:22:00,32.7,27.2,29.84,WNW,295,7.0,11.0,80,0.01,,---,0.01,VWS V13.00,2013-01-27 18:22:00,
2013-01-27 11:27:00,32.4,26.9,29.84,WNW,296,5.0,11.0,80,0.01,,---,0.01,VWS V13.00,2013-01-27 18:27:00,
2013-01-27 11:32:00,32.3,27.1,29.84,WNW,296,7.0,11.0,81,0.01,,---,0.01,VWS V13.00,2013-01-27 18:32:00,
2013-01-27 11:37:00,32.1,26.9,29.84,WNW,299,5.0,11.0,81,0.01,,---,0.01,VWS V13.00,2013-01-27 18:37:00,
2013-01-27 11:42:00,31.9,26.1,29.84,WNW,300,11.0,13.0,79,0.01,,---,0.01,VWS V13.00,2013-01-27 18:42:00,
2013-01-27 11:47:00,31.7,26.5,29.84,NW,304,11.0,13.0,81,0.01,,---,0.01,VWS V13.00,2013-01-27 18:47:00,
2013-01-27 11:52:00,31.6,26.8,29.84,NW,304,10.0,13.0,82,0.01,,---,0.01,VWS V13.00,2013-01-27 18:52:00,
2013-01-27 11:57:00,31.5,26.4,29.84,WNW,300,9.0,13.0,81,0.01,,---,0.01,VWS V13.00,2013-01-27 18:57:00,
2013-01-27 12:02:00,31.4,26.2,29.84,WNW,298,10.0,13.0,81,0.01,,---,0.01,VWS V13.00,2013-01-27 19:02:00,
2013-01-27 12:07:00,31.4,26.2,29.84,WNW,296,10.0,13.0,81,0.01,,---,0.01,VWS V13.00,2013-01-27 19:07:00,
2013-01-27 12:12:00,31.4,26.0,29.83,WNW,302,7.0,11.0,80,0.01,,---,0.01,VWS V13.00,2013-01-27 19:12:00,
2013-01-27 12:17:00,31.5,26.0,29.83,WNW,298,9.0,12.0,80,0.01,,---,0.01,VWS V13.00,2013-01-27 19:17:00,
2013-01-27 12:22:00,31.5,25.8,29.83,WNW,300,8.0,12.0,79,0.01,,---,0.01,VWS V13.00,2013-01-27 19:22:00,
2013-01-27 12:27:00,31.5,25.4,29.83,WNW,299,9.0,12.0,78,0.01,,---,0.01,VWS V13.00,2013-01-27 19:27:00,
2013-01-27 12:32:00,31.4,25.4,29.83,WNW,293,13.0,13.0,78,0.01,,---,0.01,VWS V13.00,2013-01-27 19:32:00,
2013-01-27 12:37:00,31.3,24.9,29.83,WNW,284,11.0,13.0,77,0.01,,---,0.01,VWS V13.00,2013-01-27 19:37:00,
2013-01-27 12:42:00,31.4,25.4,29.83,WNW,284,10.0,12.0,78,0.00,,---,0.01,VWS V13.00,2013-01-27 19:42:00,
2013-01-27 12:47:00,31.4,25.4,29.83,WNW,287,5.0,12.0,78,0.00,,---,0.01,VWS V13.00,2013-01-27 19:47:00,
2013-01-27 12:52:00,31.5,25.1,29.83,WNW,300,9.0,12.0,77,0.00,,---,0.01,VWS V13.00,2013-01-27 19:52:00,
2013-01-27 12:57:00,31.5,24.8,29.82,WNW,302,7.0,12.0,76,0.00,,---,0.01,VWS V13.00,2013-01-27 19:57:00,
2013-01-27 13:02:00,31.4,24.4,29.82,NW,307,10.0,12.0,75,0.00,,---,0.01,VWS V13.00,2013-01-27 20:02:00,
2013-01-27 13:07:00,31.3,24.3,29.82,WNW,298,11.0,12.0,75,0.00,,---,0.01,VWS V13.00,2013-01-27 20:07:00,
2013-01-27 13:12:00,31.4,25.0,29.82,WNW,290,5.0,10.0,77,0.00,,---,0.01,VWS V13.00,2013-01-27 20:12:00,
2013-01-27 13:17:00,31.4,24.7,29.82,WNW,294,7.0,10.0,76,0.00,,---,0.01,VWS V13.00,2013-01-27 20:17:00,
2013-01-27 13:22:00,31.5,25.1,29.82,WNW,294,4.0,10.0,77,0.00,,---,0.01,VWS V13.00,2013-01-27 20:22:00,
2013-01-27 13:27:00,31.6,24.6,29.82,WNW,296,10.0,10.0,75,0.00,,---,0.01,VWS V13.00,2013-01-27 20:27:00,
2013-01-27 13:32:00,31.6,24.3,29.82,WNW,286,5.0,10.0,74,0.00,,---,0.01,VWS V13.00,2013-01-27 20:32:00,
2013-01-27 13:37:00,31.7,24.7,29.82,West,279,8.0,10.0,75,0.00,,---,0.01,VWS V13.00,2013-01-27 20:37:00,
2013-01-27 13:42:00,31.9,24.2,29.81,WNW,287,8.0,10.0,73,0.00,,---,0.01,VWS V13.00,2013-01-27 20:42:00,
2013-01-27 13:47:00,31.8,24.1,29.81,WNW,290,9.0,12.0,73,0.00,,---,0.01,VWS V13.00,2013-01-27 20:47:00,
2013-01-27 13:52:00,31.7,24.0,29.81,WNW,298,9.0,13.0,73,0.00,,---,0.01,VWS V13.00,2013-01-27 20:52:00,
2013-01-27 13:57:00,31.7,24.4,29.81,WNW,296,7.0,13.0,74,0.00,,---,0.01,VWS V13.00,2013-01-27 20:57:00,
2013-01-27 14:02:00,31.7,23.7,29.81,WNW,288,10.0,14.0,72,0.00,,---,0.01,VWS V13.00,2013-01-27 21:02:00,
2013-01-27 14:07:00,31.6,23.6,29.81,WNW,296,10.0,14.0,72,0.00,,---,0.01,VWS V13.00,2013-01-27 21:07:00,
2013-01-27 14:12:00,31.6,23.6,29.81,NW,304,12.0,13.0,72,0.00,,---,0.01,VWS V13.00,2013-01-27 21:12:00,
2013-01-27 14:17:00,31.5,23.5,29.81,WNW,302,9.0,13.0,72,0.00,,---,0.01,VWS V13.00,2013-01-27 21:17:00,
2013-01-27 14:22:00,31.5,23.5,29.81,NW,314,9.0,13.0,72,0.00,,---,0.01,VWS V13.00,2013-01-27 21:22:00,
2013-01-27 14:27:00,31.4,23.4,29.81,NW,311,8.0,13.0,72,0.00,,---,0.01,VWS V13.00,2013-01-27 21:27:00,
2013-01-27 14:32:00,31.4,23.8,29.81,NW,316,10.0,13.0,73,0.00,,---,0.01,VWS V13.00,2013-01-27 21:32:00,
2013-01-27 14:37:00,31.3,23.0,29.81,NW,312,10.0,13.0,71,0.00,,---,0.01,VWS V13.00,2013-01-27 21:37:00,
2013-01-27 14:42:00,31.3,23.0,29.81,WNW,296,10.0,11.0,71,0.00,,---,0.01,VWS V13.00,2013-01-27 21:42:00,
2013-01-27 14:47:00,31.3,22.7,29.81,WNW,292,10.0,12.0,70,0.00,,---,0.01,VWS V13.00,2013-01-27 21:47:00,
2013-01-27 14:52:00,31.3,23.0,29.81,WNW,288,5.0,12.0,71,0.00,,---,0.01,VWS V13.00,2013-01-27 21:52:00,
2013-01-27 14:57:00,31.4,23.4,29.82,WNW,290,6.0,12.0,72,0.00,,---,0.01,VWS V13.00,2013-01-27 21:57:00,
2013-01-27 15:02:00,31.4,23.1,29.82,WNW,294,6.0,12.0,71,0.00,,---,0.01,VWS V13.00,2013-01-27 22:02:00,
2013-01-27 15:07:00,31.3,22.7,29.82,WNW,294,7.0,12.0,70,0.00,,---,0.01,VWS V13.00,2013-01-27 22:07:00,
2013-01-27 15:12:00,31.3,22.3,29.82,WNW,294,10.0,10.0,69,0.00,,---,0.01,VWS V13.00,2013-01-27 22:12:00,
2013-01-27 15:17:00,31.2,22.2,29.82,WNW,299,8.0,13.0,69,0.00,,---,0.01,VWS V13.00,2013-01-27 22:17:00,
2013-01-27 15:22:00,31.2,22.2,29.82,WNW,294,7.0,13.0,69,0.00,,---,0.01,VWS V13.00,2013-01-27 22:22:00,
2013-01-27 15:27:00,31.0,21.3,29.82,WNW,298,12.0,13.0,67,0.00,,---,0.01,VWS V13.00,2013-01-27 22:27:00,
2013-01-27 15:32:00,31.0,21.3,29.82,WNW,291,10.0,14.0,67,0.00,,---,0.01,VWS V13.00,2013-01-27 22:32:00,
2013-01-27 15:37:00,30.9,21.9,29.82,WNW,285,8.0,14.0,69,0.00,,---,0.01,VWS V13.00,2013-01-27 22:37:00,
2013-01-27 15:42:00,30.8,21.5,29.82,WNW,288,9.0,12.0,68,0.00,,---,0.01,VWS V13.00,2013-01-27 22:42:00,
2013-01-27 15:47:00,30.6,21.3,29.82,WNW,290,7.0,12.0,68,0.00,,---,0.01,VWS V13.00,2013-01-27 22:47:00,
2013-01-27 15:52:00,30.5,21.6,29.82,WNW,292,6.0,12.0,69,0.00,,---,0.01,VWS V13.00,2013-01-27 22:52:00,
2013-01-27 15:57:00,30.4,21.8,29.82,WNW,292,6.0,12.0,70,0.00,,---,0.01,VWS V13.00,2013-01-27 22:57:00,
2013-01-27 16:02:00,30.3,21.4,29.82,WNW,290,6.0,12.0,69,0.00,,---,0.01,VWS V13.00,2013-01-27 23:02:00,
2013-01-27 16:07:00,30.2,21.6,29.82,WNW,291,6.0,12.0,70,0.00,,---,0.01,VWS V13.00,2013-01-27 23:07:00,
2013-01-27 16:12:00,30.1,21.9,29.83,WNW,292,8.0,9.0,71,0.00,,---,0.01,VWS V13.00,2013-01-27 23:12:00,
2013-01-27 16:17:00,29.9,21.7,29.83,WNW,292,11.0,12.0,71,0.00,,---,0.01,VWS V13.00,2013-01-27 23:17:00,
2013-01-27 16:22:00,29.8,21.6,29.83,WNW,292,5.0,12.0,71,0.00,,---,0.01,VWS V13.00,2013-01-27 23:22:00,
2013-01-27 16:27:00,29.7,21.1,29.82,WNW,293,7.0,12.0,70,0.00,,---,0.01,VWS V13.00,2013-01-27 23:27:00,
2013-01-27 16:32:00,29.6,21.0,29.82,WNW,294,7.0,12.0,70,0.00,,---,0.01,VWS V13.00,2013-01-27 23:32:00,
2013-01-27 16:37:00,29.5,20.9,29.82,WNW,294,4.0,12.0,70,0.00,,---,0.01,VWS V13.00,2013-01-27 23:37:00,
2013-01-27 16:42:00,29.3,20.7,29.81,WNW,294,5.0,7.0,70,0.00,,---,0.01,VWS V13.00,2013-01-27 23:42:00,
2013-01-27 16:47:00,29.2,20.6,29.81,WNW,294,5.0,7.0,70,0.00,,---,0.01,VWS V13.00,2013-01-27 23:47:00,
2013-01-27 16:52:00,29.1,20.5,29.81,WNW,294,7.0,7.0,70,0.00,,---,0.01,VWS V13.00,2013-01-27 23:52:00,
2013-01-27 16:57:00,29.0,20.8,29.84,WNW,294,5.0,7.0,71,0.00,,---,0.01,VWS V13.00,2013-01-27 23:57:00,
2013-01-27 17:02:00,28.9,21.0,29.84,WNW,293,5.0,7.0,72,0.00,,---,0.01,VWS V13.00,2013-01-28 00:02:00,
2013-01-27 17:07:00,28.7,20.8,29.84,WNW,292,5.0,7.0,72,0.00,,---,0.01,VWS V13.00,2013-01-28 00:07:00,
2013-01-27 17:12:00,28.6,21.1,29.84,WNW,291,4.0,5.0,73,0.00,,---,0.01,VWS V13.00,2013-01-28 00:12:00,
2013-01-27 17:17:00,28.4,20.9,29.84,WNW,290,4.0,6.0,73,0.00,,---,0.01,VWS V13.00,2013-01-28 00:17:00,
2013-01-27 17:22:00,28.3,20.8,29.84,WNW,290,3.0,6.0,73,0.00,,---,0.01,VWS V13.00,2013-01-28 00:22:00,
2013-01-27 17:27:00,28.1,20.6,29.83,WNW,290,2.0,6.0,73,0.00,,---,0.01,VWS V13.00,2013-01-28 00:27:00,
2013-01-27 17:32:00,27.9,20.4,29.83,WNW,290,0.0,6.0,73,0.00,,---,0.01,VWS V13.00,2013-01-28 00:32:00,
2013-01-27 17:37:00,27.9,20.4,29.83,WNW,290,0.0,6.0,73,0.00,,---,0.01,VWS V13.00,2013-01-28 00:37:00,
2013-01-27 17:41:00,27.8,20.3,29.85,WNW,290,0.0,0.0,73,0.00,,---,0.01,VWS V13.00,2013-01-28 00:41:00,
2013-01-27 17:46:00,27.6,20.4,29.85,WNW,290,0.0,0.0,74,0.00,,---,0.01,VWS V13.00,2013-01-28 00:46:00,
2013-01-27 17:51:00,27.4,20.2,29.85,WNW,290,0.0,0.0,74,0.00,,---,0.01,VWS V13.00,2013-01-28 00:51:00,
2013-01-27 17:56:00,27.3,20.1,29.86,WNW,290,0.0,0.0,74,0.00,,---,0.01,VWS V13.00,2013-01-28 00:56:00,
2013-01-27 18:01:00,27.2,19.7,29.86,WNW,290,0.0,0.0,73,0.00,,---,0.01,VWS V13.00,2013-01-28 01:01:00,
2013-01-27 18:06:00,27.2,19.4,29.86,WNW,290,0.0,0.0,72,0.00,,---,0.01,VWS V13.00,2013-01-28 01:06:00,
2013-01-27 18:11:00,27.2,19.4,29.86,WNW,290,0.0,0.0,72,0.00,,---,0.01,VWS V13.00,2013-01-28 01:11:00,
2013-01-27 18:16:00,27.3,19.5,29.86,WNW,290,0.0,0.0,72,0.00,,---,0.01,VWS V13.00,2013-01-28 01:16:00,
2013-01-27 18:21:00,27.3,19.1,29.86,WNW,290,0.0,0.0,71,0.00,,---,0.01,VWS V13.00,2013-01-28 01:21:00,
2013-01-27 18:26:00,27.2,19.7,29.86,WNW,290,0.0,0.0,73,0.00,,---,0.01,VWS V13.00,2013-01-28 01:26:00,
2013-01-27 18:32:00,27.0,18.9,29.86,WNW,290,0.0,0.0,71,0.00,,---,0.01,VWS V13.00,2013-01-28 01:32:00,
2013-01-27 18:37:00,27.0,18.5,29.86,WNW,290,0.0,0.0,70,0.00,,---,0.01,VWS V13.00,2013-01-28 01:37:00,
2013-01-27 18:42:00,27.1,18.3,29.86,WNW,290,0.0,0.0,69,0.00,,---,0.01,VWS V13.00,2013-01-28 01:42:00,
2013-01-27 18:47:00,27.2,18.4,29.86,WNW,290,0.0,0.0,69,0.00,,---,0.01,VWS V13.00,2013-01-28 01:47:00,
2013-01-27 18:52:00,27.0,18.9,29.86,WNW,290,0.0,0.0,71,0.00,,---,0.01,VWS V13.00,2013-01-28 01:52:00,
2013-01-27 18:57:00,26.9,19.4,29.87,WNW,290,4.0,4.0,73,0.00,,---,0.01,VWS V13.00,2013-01-28 01:57:00,
2013-01-27 19:02:00,26.7,20.2,29.87,West,276,4.0,5.0,76,0.00,,---,0.01,VWS V13.00,2013-01-28 02:02:00,
2013-01-27 19:07:00,26.4,19.9,29.87,WSW,253,4.0,5.0,76,0.00,,---,0.01,VWS V13.00,2013-01-28 02:07:00,
2013-01-27 19:12:00,26.2,20.0,29.87,WSW,252,3.0,4.0,77,0.00,,---,0.01,VWS V13.00,2013-01-28 02:12:00,
2013-01-27 19:16:00,26.2,19.4,29.87,WSW,252,3.0,4.0,75,0.00,,---,0.01,VWS V13.00,2013-01-28 02:16:00,
2013-01-27 19:21:00,26.1,19.3,29.87,WSW,252,4.0,5.0,75,0.00,,---,0.01,VWS V13.00,2013-01-28 02:21:00,
2013-01-27 19:26:00,26.0,19.5,29.87,WSW,252,3.0,5.0,76,0.00,,---,0.01,VWS V13.00,2013-01-28 02:26:00,
2013-01-27 19:32:00,25.9,19.7,29.87,WSW,252,2.0,5.0,77,0.00,,---,0.01,VWS V13.00,2013-01-28 02:32:00,
2013-01-27 19:37:00,25.7,19.8,29.87,WSW,249,4.0,5.0,78,0.00,,---,0.01,VWS V13.00,2013-01-28 02:37:00,
2013-01-27 19:42:00,25.5,19.6,29.87,WSW,239,4.0,5.0,78,0.00,,---,0.01,VWS V13.00,2013-01-28 02:42:00,
2013-01-27 19:47:00,25.4,19.5,29.87,SSW,211,5.0,7.0,78,0.00,,---,0.01,VWS V13.00,2013-01-28 02:47:00,
2013-01-27 19:52:00,25.3,18.8,29.87,SSW,212,2.0,7.0,76,0.00,,---,0.01,VWS V13.00,2013-01-28 02:52:00,
2013-01-27 19:57:00,25.2,18.7,29.87,SSW,212,2.0,7.0,76,0.00,,---,0.01,VWS V13.00,2013-01-28 02:57:00,
2013-01-27 20:02:00,25.3,18.8,29.87,SSW,211,5.0,7.0,76,0.00,,---,0.01,VWS V13.00,2013-01-28 03:02:00,
2013-01-27 20:07:00,25.3,19.1,29.87,SSW,201,5.0,7.0,77,0.00,,---,0.01,VWS V13.00,2013-01-28 03:07:00,
2013-01-27 20:12:00,25.3,19.4,29.85,SSW,195,5.0,5.0,78,0.00,,---,0.01,VWS V13.00,2013-01-28 03:12:00,
2013-01-27 20:17:00,25.1,19.2,29.85,SSW,195,2.0,5.0,78,0.00,,---,0.01,VWS V13.00,2013-01-28 03:17:00,
2013-01-27 20:22:00,25.0,19.1,29.85,SSW,195,2.0,5.0,78,0.00,,---,0.01,VWS V13.00,2013-01-28 03:22:00,
2013-01-27 20:27:00,24.9,18.7,29.85,SSW,195,2.0,5.0,77,0.00,,---,0.01,VWS V13.00,2013-01-28 03:27:00,
2013-01-27 20:32:00,25.0,18.8,29.85,SSW,195,3.0,5.0,77,0.00,,---,0.01,VWS V13.00,2013-01-28 03:32:00,
2013-01-27 20:37:00,25.0,18.8,29.85,SSW,195,2.0,5.0,77,0.00,,---,0.01,VWS V13.00,2013-01-28 03:37:00,
2013-01-27 20:42:00,25.0,18.8,29.85,SSW,195,2.0,3.0,77,0.00,,---,0.01,VWS V13.00,2013-01-28 03:42:00,
2013-01-27 20:46:00,24.8,18.9,29.85,SSW,195,2.0,3.0,78,0.00,,---,0.01,VWS V13.00,2013-01-28 03:46:00,
2013-01-27 20:51:00,24.7,18.8,29.85,SSW,195,1.0,3.0,78,0.00,,---,0.01,VWS V13.00,2013-01-28 03:51:00,
2013-01-27 20:56:00,24.7,18.2,29.85,SSW,195,2.0,3.0,76,0.00,,---,0.01,VWS V13.00,2013-01-28 03:56:00,
2013-01-27 21:02:00,24.7,18.5,29.85,SSW,195,1.0,3.0,77,0.00,,---,0.01,VWS V13.00,2013-01-28 04:02:00,
2013-01-27 21:07:00,24.6,18.4,29.85,SSW,195,0.0,3.0,77,0.00,,---,0.01,VWS V13.00,2013-01-28 04:07:00,
2013-01-27 21:12:00,24.6,18.7,29.85,SSW,195,0.0,1.0,78,0.00,,---,0.01,VWS V13.00,2013-01-28 04:12:00,
2013-01-27 21:17:00,24.4,18.5,29.85,SSW,195,0.0,1.0,78,0.00,,---,0.01,VWS V13.00,2013-01-28 04:17:00,
2013-01-27 21:22:00,24.2,18.6,29.85,SSW,195,2.0,3.0,79,0.00,,---,0.01,VWS V13.00,2013-01-28 04:22:00,
2013-01-27 21:27:00,24.0,18.5,29.86,SSW,195,1.0,3.0,79,0.00,,---,0.01,VWS V13.00,2013-01-28 04:27:00,
2013-01-27 21:32:00,23.9,18.4,29.86,SSW,195,1.0,3.0,79,0.00,,---,0.01,VWS V13.00,2013-01-28 04:32:00,
2013-01-27 21:37:00,23.8,18.5,29.86,SSW,195,0.0,3.0,80,0.00,,---,0.01,VWS V13.00,2013-01-28 04:37:00,
2013-01-27 21:42:00,23.7,18.1,29.86,SSW,195,1.0,1.0,79,0.00,,---,0.01,VWS V13.00,2013-01-28 04:42:00,
2013-01-27 21:47:00,23.7,18.1,29.86,SSW,195,1.0,2.0,79,0.00,,---,0.01,VWS V13.00,2013-01-28 04:47:00,
2013-01-27 21:51:00,23.7,18.1,29.86,SSW,195,0.0,2.0,79,0.00,,---,0.01,VWS V13.00,2013-01-28 04:51:00,
2013-01-27 21:57:00,23.6,18.1,29.86,SSW,195,2.0,4.0,79,0.00,,---,0.01,VWS V13.00,2013-01-28 04:57:00,
2013-01-27 22:01:00,23.6,17.5,29.86,SSW,196,5.0,9.0,77,0.00,,---,0.01,VWS V13.00,2013-01-28 05:01:00,
2013-01-27 22:03:00,23.7,17.6,29.86,SSW,196,4.0,9.0,77,0.00,,---,0.01,VWS V13.00,2013-01-28 05:03:00,
2013-01-27 22:08:00,23.9,17.1,29.86,SSW,202,5.0,9.0,75,0.00,,---,0.01,VWS V13.00,2013-01-28 05:08:00,
2013-01-27 22:13:00,24.1,17.0,29.86,SSW,202,4.0,4.0,74,0.00,,---,0.01,VWS V13.00,2013-01-28 05:13:00,
2013-01-27 22:18:00,24.3,17.2,29.86,SSW,202,0.0,5.0,74,0.00,,---,0.01,VWS V13.00,2013-01-28 05:18:00,
2013-01-27 22:23:00,24.4,17.0,29.86,SSW,202,0.0,5.0,73,0.00,,---,0.01,VWS V13.00,2013-01-28 05:23:00,
2013-01-27 22:28:00,24.5,17.7,29.86,SSW,202,0.0,5.0,75,0.00,,---,0.01,VWS V13.00,2013-01-28 05:28:00,
2013-01-27 22:33:00,24.4,17.9,29.86,SSW,202,0.0,5.0,76,0.00,,---,0.01,VWS V13.00,2013-01-28 05:33:00,
2013-01-27 22:38:00,24.2,17.7,29.86,SSW,202,0.0,5.0,76,0.00,,---,0.01,VWS V13.00,2013-01-28 05:38:00,
2013-01-27 22:43:00,24.1,17.3,29.86,SSW,202,0.0,6.0,75,0.00,,---,0.01,VWS V13.00,2013-01-28 05:43:00,
2013-01-27 22:48:00,24.1,17.3,29.86,SSW,202,0.0,6.0,75,0.00,,---,0.01,VWS V13.00,2013-01-28 05:48:00,
2013-01-27 22:53:00,24.1,17.6,29.86,SSW,202,0.0,6.0,76,0.00,,---,0.01,VWS V13.00,2013-01-28 05:53:00,
2013-01-27 22:58:00,24.1,18.0,29.87,SSW,202,2.0,6.0,77,0.00,,---,0.01,VWS V13.00,2013-01-28 05:58:00,
2013-01-27 23:03:00,24.1,17.6,29.87,SSW,202,0.0,6.0,76,0.00,,---,0.01,VWS V13.00,2013-01-28 06:03:00,
2013-01-27 23:08:00,24.0,17.9,29.87,SSW,202,0.0,6.0,77,0.00,,---,0.01,VWS V13.00,2013-01-28 06:08:00,
2013-01-27 23:13:00,24.0,17.5,29.87,SSW,202,0.0,0.0,76,0.00,,---,0.01,VWS V13.00,2013-01-28 06:13:00,
2013-01-27 23:18:00,23.9,17.5,29.87,SSW,202,0.0,0.0,76,0.00,,---,0.01,VWS V13.00,2013-01-28 06:18:00,
2013-01-27 23:23:00,23.9,17.5,29.87,SSW,202,0.0,0.0,76,0.00,,---,0.01,VWS V13.00,2013-01-28 06:23:00,
2013-01-27 23:28:00,23.9,17.5,29.87,SSW,202,0.0,0.0,76,0.00,,---,0.01,VWS V13.00,2013-01-28 06:28:00,
2013-01-27 23:33:00,23.9,17.5,29.87,SSW,202,0.0,0.0,76,0.00,,---,0.01,VWS V13.00,2013-01-28 06:33:00,
2013-01-27 23:38:00,23.9,17.5,29.87,SSW,202,0.0,0.0,76,0.00,,---,0.01,VWS V13.00,2013-01-28 06:38:00,
2013-01-27 23:43:00,23.9,17.5,29.87,SSW,202,0.0,0.0,76,0.00,,---,0.00,VWS V13.00,2013-01-28 06:43:00,
2013-01-27 23:48:00,23.9,17.5,29.87,SSW,202,0.0,0.0,76,0.00,,---,0.00,VWS V13.00,2013-01-28 06:48:00,
2013-01-27 23:53:00,23.9,17.5,29.89,SSW,202,2.0,4.0,76,0.00,,---,0.00,VWS V13.00,2013-01-28 06:53:00,
2013-01-27 23:58:00,23.9,17.5,29.89,SSW,202,3.0,5.0,76,0.00,,---,0.00,VWS V13.00,2013-01-28 06:58:00,